FW0344 Weather Reports


Display with metric or nautical units.
time (UTC)temp
F
wind
direction
speed
MPH
gust
MPH
rain 1hr
in
rain 24hr
in
rain mn
in
humidity
%
barometer
mb
20260507134505 63 153 6.0 13.0 0.00 0.00 0.00 50 1014.5
20260507133604 64 138 7.0 14.0 0.00 0.00 0.00 52 1014.4
20260507132705 63 129 6.0 12.0 0.00 0.00 0.00 50 1014.5
20260507131804 63 138 7.0 17.0 0.00 0.00 0.00 50 1014.5
20260507130905 63 142 6.0 12.0 0.00 0.00 0.00 50 1014.6
20260507130004 63 141 7.0 14.0 0.00 0.00 0.00 52 1014.6
20260507125405 62 143 8.0 16.0 0.00 0.00 0.00 51 1014.6
20260507124505 63 152 9.0 14.0 0.00 0.00 0.00 52 1014.7
20260507123626 64 135 7.0 13.0 0.00 0.00 0.00 54 1014.7
20260507122705 62 144 8.0 15.0 0.00 0.00 0.00 56 1014.7
20260507121805 62 159 7.0 15.0 0.00 0.00 0.00 54 1014.8
20260507120904 62 160 8.0 14.0 0.00 0.00 0.00 55 1014.7
20260507120005 62 151 8.0 17.0 0.00 0.00 0.00 55 1014.8
20260507115405 62 156 7.0 16.0 0.00 0.00 0.00 56 1014.8
20260507114505 63 151 8.0 13.0 0.00 0.00 0.00 57 1014.9
20260507113605 62 156 7.0 16.0 0.00 0.00 0.00 60 1014.9
20260507112705 62 146 7.0 18.0 0.00 0.00 0.00 56 1014.9
20260507111826 62 148 8.0 18.0 0.00 0.00 0.00 58 1015.0
20260507110925 62 152 7.0 14.0 0.00 0.00 0.00 59 1014.8
20260507110026 61 155 7.0 13.0 0.00 0.00 0.00 58 1014.9
20260507105425 61 158 8.0 16.0 0.00 0.00 0.00 62 1015.0
20260507104504 60 169 8.0 15.0 0.00 0.00 0.00 64 1015.0
20260507103603 60 157 7.0 16.0 0.00 0.00 0.00 67 1015.1
20260507102704 60 145 7.0 14.0 0.00 0.00 0.00 68 1015.0
20260507101825 60 146 7.0 14.0 0.00 0.00 0.00 68 1015.0
20260507100904 60 147 8.0 14.0 0.00 0.00 0.00 68 1015.0
20260507100005 59 148 6.0 14.0 0.00 0.00 0.00 70 1015.0
20260507095403 60 137 6.0 10.0 0.00 0.00 0.00 70 1015.0
20260507094504 59 156 6.0 12.0 0.00 0.00 0.00 71 1015.0
20260507093603 58 160 5.0 11.0 0.00 0.00 0.00 72 1015.0
20260507092703 58 142 5.0 11.0 0.00 0.00 0.00 71 1014.9
20260507091804 57 154 6.0 10.0 0.00 0.00 0.00 72 1015.0
20260507090904 57 137 6.0 10.0 0.00 0.00 0.00 72 1014.9
20260507090004 58 135 4.0 11.0 0.00 0.00 0.00 74 1014.9
20260507085405 58 132 5.0 11.0 0.00 0.00 0.00 75 1014.9
20260507084504 57 147 6.0 12.0 0.00 0.00 0.00 76 1014.9
20260507083604 56 144 5.0 11.0 0.00 0.00 0.00 78 1014.9
20260507082704 56 133 4.0 10.0 0.00 0.00 0.00 80 1014.8
20260507081804 55 123 5.0 11.0 0.00 0.00 0.00 81 1014.9
20260507080925 55 121 5.0 10.0 0.00 0.00 0.00 82 1014.8
20260507080003 55 92 4.0 8.0 0.00 0.00 0.00 82 1014.9
20260507075425 54 85 4.0 8.0 0.00 0.00 0.00 82 1014.9
20260507074504 54 86 4.0 8.0 0.00 0.00 0.00 82 1014.9
20260507073604 54 56 1.0 4.0 0.00 0.00 0.00 82 1014.9
20260507072704 52 55 1.0 4.0 0.00 0.00 0.00 82 1014.8
20260507071803 51 45 2.0 4.0 0.00 0.00 0.00 83 1014.8
20260507070903 50 44 1.0 3.0 0.00 0.00 0.00 83 1014.8
20260507070025 49 44 0.0 2.0 0.00 0.00 0.00 83 1014.7
20260507065403 49 47 1.0 2.0 0.00 0.00 0.00 83 1014.7
20260507064504 49 49 1.0 3.0 0.00 0.00 0.00 83 1014.8
20260507063624 48 53 1.0 2.0 0.00 0.00 0.00 83 1014.8
20260507062703 48 53 0.0 1.0 0.00 0.00 0.00 83 1014.8
20260507061803 48 0 0.0 0.0 0.00 0.01 0.00 83 1014.7
20260507060903 47 54 0.0 3.0 0.00 0.01 0.00 83 1014.7
20260507060003 47 54 1.0 3.0 0.00 0.01 0.00 82 1014.5
20260507055403 47 54 2.0 3.0 0.00 0.01 0.00 82 1014.4
20260507054504 47 54 1.0 2.0 0.00 0.01 0.00 82 1014.3
20260507053604 47 0 0.0 0.0 0.00 0.01 0.00 82 1014.3
20260507052725 46 54 0.0 3.0 0.00 0.01 0.00 82 1014.1
20260507051806 46 55 2.0 4.0 0.00 0.01 0.00 82 1014.1
20260507050906 46 53 1.0 3.0 0.00 0.01 0.00 82 1014.3
20260507050006 46 40 2.0 5.0 0.00 0.01 0.00 81 1014.2
20260507045406 46 37 1.0 4.0 0.00 0.01 0.00 81 1014.1
20260507044507 46 38 1.0 3.0 0.00 0.01 0.00 81 1014.1
20260507043606 46 52 2.0 4.0 0.00 0.01 0.00 81 1014.1
20260507042706 46 45 3.0 6.0 0.00 0.01 0.00 81 1014.0
20260507041827 47 50 2.0 5.0 0.00 0.01 0.00 80 1014.0
20260507040905 47 39 2.0 6.0 0.00 0.01 0.00 80 1014.1
20260507040006 47 42 3.0 6.0 0.00 0.01 0.00 80 1014.0
20260507035406 47 36 2.0 5.0 0.00 0.01 0.00 80 1014.1
20260507034506 47 44 2.0 4.0 0.00 0.01 0.00 80 1014.0
20260507033607 47 46 2.0 5.0 0.00 0.01 0.00 79 1013.9
20260507032705 47 32 2.0 4.0 0.00 0.01 0.00 79 1013.9
20260507031807 47 52 2.0 5.0 0.00 0.01 0.00 79 1013.9
20260507030905 48 51 3.0 6.0 0.00 0.01 0.00 79 1013.8
20260507030028 48 38 2.0 4.0 0.00 0.01 0.00 79 1013.7
20260507025405 48 31 3.0 5.0 0.00 0.01 0.00 79 1013.6
20260507024506 48 31 3.0 5.0 0.00 0.01 0.00 79 1013.6
20260507023605 48 46 3.0 6.0 0.00 0.01 0.00 79 1013.6
20260507022706 48 37 3.0 5.0 0.00 0.01 0.00 79 1013.6
20260507021805 48 35 3.0 5.0 0.00 0.01 0.00 79 1013.6
20260507020927 48 36 2.0 4.0 0.00 0.01 0.00 80 1013.7
20260507020006 48 34 2.0 5.0 0.00 0.01 0.00 80 1013.7
20260507015406 48 30 2.0 5.0 0.00 0.01 0.00 80 1013.8
20260507014505 48 34 2.0 4.0 0.00 0.01 0.00 80 1013.7
20260507013605 48 33 2.0 4.0 0.00 0.01 0.00 80 1013.7
20260507012727 48 32 1.0 4.0 0.00 0.01 0.00 81 1013.6
20260507011826 48 32 2.0 3.0 0.00 0.01 0.00 81 1013.8
20260507010005 49 25 1.0 4.0 0.00 0.01 0.00 81 1013.7
20260507005427 49 25 1.0 3.0 0.00 0.01 0.00 81 1013.7
20260507004506 49 29 1.0 4.0 0.00 0.01 0.00 81 1013.7
20260507003606 49 0 0.0 0.0 0.00 0.01 0.00 81 1013.7
20260507002706 50 278 0.0 2.0 0.00 0.01 0.00 80 1013.8
20260507001806 50 278 0.0 2.0 0.00 0.01 0.00 80 1013.9
20260507000906 50 0 0.0 0.0 0.00 0.01 0.00 80 1013.8
20260507000006 50 0 0.0 0.0 0.00 0.01 0.00 79 1013.8
20260506235405 50 0 0.0 0.0 0.00 0.01 0.00 79 1013.8
20260506234506 51 0 0.0 0.0 0.00 0.01 0.00 79 1013.7
20260506233605 51 0 0.0 0.0 0.00 0.01 0.00 79 1013.7
20260506232707 51 0 0.0 0.0 0.00 0.01 0.00 79 1013.7
20260506231826 51 0 0.0 0.0 0.00 0.01 0.00 78 1013.7
20260506230928 51 0 0.0 0.0 0.00 0.01 0.00 78 1013.7
20260506230005 51 0 0.0 0.0 0.00 0.01 0.00 78 1013.8
20260506225405 51 0 0.0 0.0 0.00 0.01 0.01 78 1013.8
20260506224505 51 0 0.0 0.0 0.00 0.01 0.01 78 1013.8
20260506223626 51 0 0.0 0.0 0.00 0.01 0.01 78 1013.8
20260506222726 51 278 0.0 2.0 0.00 0.01 0.01 78 1013.8
20260506221806 51 278 0.0 2.0 0.00 0.01 0.01 77 1013.7
20260506220906 52 278 0.0 2.0 0.00 0.01 0.01 77 1013.7
20260506220027 52 0 0.0 0.0 0.00 0.01 0.01 77 1013.6
20260506215405 52 0 0.0 0.0 0.00 0.01 0.01 77 1013.5
20260506214505 52 0 0.0 1.0 0.00 0.01 0.01 76 1013.6
20260506213605 52 278 0.0 2.0 0.00 0.01 0.01 76 1013.6
20260506212705 52 278 1.0 3.0 0.00 0.01 0.01 76 1013.6
20260506211806 52 278 1.0 3.0 0.00 0.01 0.01 76 1013.7
20260506210905 52 278 2.0 3.0 0.00 0.01 0.01 76 1013.7
20260506210006 52 276 1.0 3.0 0.00 0.01 0.01 75 1013.6
20260506205405 52 259 1.0 3.0 0.00 0.01 0.01 75 1013.5
20260506204506 52 252 2.0 4.0 0.00 0.01 0.01 75 1013.4
20260506203605 52 254 2.0 4.0 0.00 0.01 0.01 74 1013.4
20260506202706 53 259 2.0 4.0 0.00 0.01 0.01 74 1013.3
20260506201827 53 258 2.0 6.0 0.00 0.01 0.01 74 1013.2
20260506200905 53 246 2.0 4.0 0.00 0.01 0.01 74 1013.2
20260506200005 53 241 2.0 5.0 0.00 0.01 0.01 73 1013.2
20260506195406 53 243 3.0 6.0 0.00 0.01 0.01 73 1013.1
20260506194504 53 241 3.0 5.0 0.00 0.01 0.01 72 1012.9
20260506193605 53 240 3.0 7.0 0.00 0.01 0.01 72 1012.9
20260506192705 54 241 3.0 6.0 0.00 0.01 0.01 71 1012.9
20260506191804 54 234 4.0 8.0 0.00 0.01 0.01 71 1012.8
20260506190905 54 233 4.0 7.0 0.00 0.01 0.01 70 1012.8
20260506190005 54 237 4.0 8.0 0.00 0.01 0.01 70 1012.7
20260506185404 54 236 4.0 8.0 0.00 0.01 0.01 70 1012.7
20260506184506 54 238 5.0 9.0 0.00 0.01 0.01 69 1012.7
20260506183605 55 236 5.0 9.0 0.00 0.01 0.01 68 1012.7
20260506182725 55 234 5.0 10.0 0.00 0.01 0.01 67 1012.6
20260506181827 55 239 3.0 8.0 0.00 0.01 0.01 67 1012.6
20260506180906 55 242 4.0 8.0 0.00 0.01 0.01 66 1012.5
20260506180006 55 233 5.0 10.0 0.00 0.01 0.01 66 1012.5
20260506175405 56 230 4.0 10.0 0.00 0.01 0.01 66 1012.4
20260506174505 56 233 5.0 10.0 0.00 0.01 0.01 66 1012.4
20260506173604 56 239 5.0 10.0 0.00 0.01 0.01 66 1012.3
20260506172704 56 245 5.0 10.0 0.00 0.01 0.01 66 1012.1
20260506171804 56 242 6.0 11.0 0.00 0.01 0.01 66 1012.1
20260506170926 57 239 6.0 12.0 0.00 0.01 0.01 66 1012.1
20260506170005 57 233 6.0 13.0 0.00 0.01 0.01 66 1012.1
20260506165405 57 238 4.0 8.0 0.00 0.01 0.01 66 1012.1
20260506164525 57 227 6.0 11.0 0.00 0.01 0.01 66 1012.0
20260506163626 56 223 6.0 12.0 0.00 0.01 0.01 66 1012.0
20260506162705 57 224 6.0 11.0 0.00 0.01 0.01 66 1012.0
20260506161804 57 220 6.0 12.0 0.00 0.01 0.01 66 1012.0
20260506160905 57 216 6.0 13.0 0.00 0.01 0.01 66 1012.1
20260506160004 58 207 6.0 13.0 0.00 0.01 0.01 66 1011.9
20260506155404 58 210 6.0 12.0 0.00 0.01 0.01 66 1012.0
20260506154504 58 210 7.0 14.0 0.00 0.01 0.01 65 1012.0
20260506153605 59 213 7.0 13.0 0.00 0.01 0.01 63 1012.0
20260506152726 59 223 6.0 11.0 0.00 0.01 0.01 64 1012.1
20260506151805 59 215 8.0 13.0 0.00 0.01 0.01 63 1012.0
20260506150925 59 224 6.0 11.0 0.00 0.01 0.01 64 1011.9
20260506150005 59 225 5.0 10.0 0.00 0.01 0.01 63 1012.1
20260506145405 59 229 4.0 9.0 0.00 0.01 0.01 63 1012.1
20260506144505 58 230 6.0 10.0 0.00 0.01 0.01 62 1012.3
20260506143605 58 240 7.0 11.0 0.00 0.01 0.01 61 1012.2
20260506142705 59 244 5.0 9.0 0.00 0.01 0.01 59 1012.3
20260506141826 60 357 2.0 8.0 0.00 0.01 0.01 50 1012.3
20260506140905 60 42 1.0 4.0 0.00 0.01 0.01 51 1012.3
20260506140005 60 17 1.0 3.0 0.00 0.01 0.01 46 1012.3
20260506135405 60 4 2.0 5.0 0.00 0.01 0.01 48 1012.3